sat.trackr.live / text

‹ back to catalog

STARLINK-36313

NORAD 68156 · 2026-049Q

PAYLOAD ACTIVE UNKNOWN

§ Identity

Operator
Country
US
Launch date
2026-03-13
Launch site
AFWTR
Launch vehicle
Mass (kg)
RCS (m²)

Purposes: comms

External: N2YO · Heavens-Above · Gunter

§ Orbital elements

Epoch: 2026-05-25T00:54:34.405344Z

Period
93.91 min
Inclination
97.2843°
Eccentricity
0.0001728
Mean motion
15.33452016 rev/d
Perigee alt
464.3 km
Apogee alt
466.7 km
Semi-major
6,843.7 km
B*
6.6027e-4
RAAN
166.6339°
Arg perigee
93.2799°
Mean anomaly
266.8642°
Rev number
1,134

§ Raw data

STARLINK-363131 68156U 26049Q   26145.03789821  .00021306  00000+0  66027-3 0  99982 68156  97.2843 166.6339 0001728  93.2799 266.8642 15.33452016 11345

JSON: /api/v1/satellites/68156 · /tle

For live sub-satellite position, see the globe view (requires WebGL).

§ Visibility from observer

Set your observer location to see the next 7 days of passes ≥ 10°. The values pass through the URL so the page stays shareable.

No JS? Fill the form by hand. The geolocation button needs JavaScript.